Weather History for Dublin, Ireland

Change the Weather History Date:

Friday, March 22, 2013

  Actual Average Record
Temperature  
Mean Temperature 39 °F -  
Max Temperature 41 °F 52 °F 59 °F (2011)
Min Temperature 37 °F 39 °F 32 °F (2003)
Degree Days  
Heating Degree Days 26    
Moisture  
Dew Point 38 °F    
Average Humidity 95    
Maximum Humidity 100    
Minimum Humidity 87    
Precipitation  
Precipitation 0.75 in 0.07 in - ()
Sea Level Pressure  
Sea Level Pressure 29.56 in    
Wind  
Wind Speed 23 mph ()    
Max Wind Speed 32 mph    
Max Gust Speed 46 mph    
Visibility 4.6 miles    
Events Rain    
Averages and records for this station are not official NWS values.
T = Trace of Precipitation, MM = Missing Value Source: Averaged Metar Reports

Daily Weather History Graph

Daily Weather History Graph

Search for Another Location

Airport:

Trip Planner

Search our weather history database for the weather conditions in past years. The results will help you decide how hot, cold, wet, or windy it might be!

Date:

Astronomy

Mar. 22, 2013 Rise Set
Actual Time 6:22 AM GMT 6:42 PM GMT
Civil Twilight 5:47 AM GMT 7:17 PM GMT
Nautical Twilight 5:06 AM GMT 7:59 PM GMT
Astronomical Twilight 4:22 AM GMT 8:42 PM GMT
Moon 1:20 PM GMT 3:52 AM GMT
Length of Visible Light 13h 29m
Length of Day
12h 19m
Waxing Gibbous, 75% of the Moon is Illuminated
Mar 22
Waxing Gibbous
Mar 27
Full
Apr 3
Last Quarter
Apr 10
New
Apr 18
First Quarter

Hourly Weather History & Observations

Time (GMT) Temp. Windchill Dew Point Humidity Pressure Visibility Wind Dir Wind Speed Gust Speed Precip Events Conditions
12:00 AM 39 °F - 38 °F 93% 29.62 in 5 mi East 29.1 mph - - Rain Light Rain
12:00 AM 39.2 °F 27.2 °F 37.4 °F 93% 29.59 in 5.0 mi East 31.1 mph - N/A Rain Light Rain
12:30 AM 39.2 °F 28.0 °F 37.4 °F 93% 29.59 in 6.2 mi ESE 26.5 mph - N/A Rain Light Rain
1:00 AM 39.2 °F 27.8 °F 37.4 °F 93% 29.59 in 6.2 mi ESE 27.6 mph 40.3 mph N/A Rain Light Rain
1:30 AM 39.2 °F 27.8 °F 37.4 °F 93% 29.59 in 6.2 mi ESE 27.6 mph 39.1 mph N/A Rain Light Rain
2:00 AM 39.2 °F 27.2 °F 37.4 °F 93% 29.56 in 5.0 mi ESE 31.1 mph 42.6 mph N/A Rain Light Rain
2:30 AM 39.2 °F 27.8 °F 39.2 °F 100% 29.56 in 5.0 mi ESE 27.6 mph 39.1 mph N/A Rain Light Rain
3:00 AM 39.2 °F 28.5 °F 39.2 °F 100% 29.56 in 5.0 mi ESE 24.2 mph - N/A Rain Light Rain
3:30 AM 39.2 °F 28.7 °F 39.2 °F 100% 29.56 in 5.0 mi ESE 23.0 mph - N/A Rain Light Rain
4:00 AM 39.2 °F 28.0 °F 39.2 °F 100% 29.53 in 5.0 mi ESE 26.5 mph - N/A Rain Light Rain
4:30 AM 41.0 °F 31.4 °F 39.2 °F 93% 29.56 in 6.2 mi ESE 21.9 mph - N/A   Drizzle
5:00 AM 41.0 °F 30.9 °F 39.2 °F 93% 29.56 in 6.2 mi ESE 24.2 mph 35.7 mph N/A Rain Light Rain
5:30 AM 41.0 °F 31.1 °F 39.2 °F 93% 29.53 in 6.2 mi ESE 23.0 mph 36.8 mph N/A Rain Light Rain
6:00 AM 40 °F - 39 °F 96% 29.55 in 7 mi ESE 31.3 mph - - Rain Light Rain
6:00 AM 41.0 °F 29.7 °F 39.2 °F 93% 29.53 in 6.2 mi ESE 31.1 mph - N/A Rain Light Rain
6:30 AM 41.0 °F 30.2 °F 39.2 °F 93% 29.53 in 6.2 mi ESE 27.6 mph - N/A Rain Light Rain
7:00 AM 41.0 °F 30.5 °F 39.2 °F 93% 29.53 in 3.7 mi ESE 26.5 mph - N/A Rain Light Rain
7:30 AM 41.0 °F 30.9 °F 39.2 °F 93% 29.53 in 3.7 mi ESE 24.2 mph - N/A Rain Light Rain
8:00 AM 41.0 °F 31.6 °F 39.2 °F 93% 29.56 in 3.7 mi SE 20.7 mph - N/A Rain Light Rain
8:30 AM 41.0 °F 30.7 °F 39.2 °F 93% 29.56 in 4.3 mi SE 25.3 mph - N/A Rain Light Rain
9:00 AM 41.0 °F 30.7 °F 39.2 °F 93% 29.53 in 4.3 mi ESE 25.3 mph - N/A Rain Rain
9:30 AM 41.0 °F 30.7 °F 39.2 °F 93% 29.53 in 4.3 mi ESE 25.3 mph - N/A Rain Rain
10:00 AM 41.0 °F 31.9 °F 39.2 °F 93% 29.50 in 4.3 mi ESE 19.6 mph 34.5 mph N/A Rain Rain
10:30 AM 41.0 °F 29.5 °F 39.2 °F 93% 29.50 in 4.3 mi ESE 32.2 mph 46.0 mph N/A Rain Light Rain
11:00 AM 41.0 °F 30.2 °F 39.2 °F 93% 29.53 in 4.3 mi ESE 27.6 mph - N/A Rain Light Rain
11:30 AM 39.2 °F 28.3 °F 39.2 °F 100% 29.53 in 3.7 mi ESE 25.3 mph - N/A Rain Light Rain
12:00 PM 40 °F - 39 °F 93% 29.55 in 4 mi ESE 20.1 mph - - Rain Rain
12:00 PM 39.2 °F 29.8 °F 39.2 °F 100% 29.53 in 3.7 mi ESE 18.4 mph - N/A Rain Light Rain
12:30 PM 39.2 °F 28.7 °F 39.2 °F 100% 29.53 in 3.7 mi ESE 23.0 mph - N/A Rain Rain
1:00 PM 39.2 °F 29.6 °F 39.2 °F 100% 29.53 in 3.1 mi ESE 19.6 mph - N/A Rain Rain
1:30 PM 39.2 °F 28.7 °F 39.2 °F 100% 29.50 in 2.8 mi ESE 23.0 mph - N/A Rain Rain
2:00 PM 39.2 °F 29.8 °F 39.2 °F 100% 29.53 in 2.8 mi ESE 18.4 mph 31.1 mph N/A Rain Light Rain
2:30 PM 41.0 °F 31.9 °F 39.2 °F 93% 29.53 in 2.8 mi ESE 19.6 mph - N/A Rain Light Rain
3:00 PM 41.0 °F 31.4 °F 37.4 °F 87% 29.53 in 3.1 mi ESE 21.9 mph - N/A Rain Light Rain
3:30 PM 39.2 °F 28.5 °F 37.4 °F 93% 29.53 in 5.0 mi ESE 24.2 mph - N/A Rain Light Rain
4:00 PM 39.2 °F 27.6 °F 37.4 °F 93% 29.53 in 3.1 mi ESE 28.8 mph 40.3 mph N/A Rain Light Rain
4:30 PM 39.2 °F 28.3 °F 39.2 °F 100% 29.53 in 2.5 mi ESE 25.3 mph - N/A Rain Light Rain
5:00 PM 39.2 °F 29.0 °F 39.2 °F 100% 29.56 in 5.0 mi ESE 21.9 mph - N/A Rain Light Rain
5:30 PM 39.2 °F 28.7 °F 39.2 °F 100% 29.56 in 3.7 mi ESE 23.0 mph - N/A Rain Light Rain
6:00 PM 40 °F - 38 °F 91% 29.59 in 5 mi East 22.4 mph - - Rain Light Rain
6:00 PM 39.2 °F 29.0 °F 39.2 °F 100% 29.56 in 5.0 mi ESE 21.9 mph - N/A Rain Light Rain
6:30 PM 39.2 °F 30.5 °F 37.4 °F 93% 29.59 in 4.3 mi East 16.1 mph - N/A Rain Light Rain
7:00 PM 39.2 °F 30.8 °F 37.4 °F 93% 29.59 in 4.3 mi East 15.0 mph - N/A Rain Light Rain
7:30 PM 39.2 °F 29.8 °F 37.4 °F 93% 29.62 in 4.3 mi ESE 18.4 mph 29.9 mph N/A   Light Drizzle
8:00 PM 39.2 °F 29.8 °F 37.4 °F 93% 29.62 in 4.3 mi ESE 18.4 mph - N/A   Light Drizzle
8:30 PM 39.2 °F 28.0 °F 37.4 °F 93% 29.62 in 4.3 mi ESE 26.5 mph - N/A   Light Drizzle
9:00 PM 39.2 °F 29.8 °F 37.4 °F 93% 29.62 in 5.0 mi ESE 18.4 mph 31.1 mph N/A Rain Light Rain
9:30 PM 39.2 °F 31.2 °F 37.4 °F 93% 29.65 in 5.0 mi ESE 13.8 mph - N/A Rain Light Rain
10:00 PM 39.2 °F 29.8 °F 37.4 °F 93% 29.65 in 5.0 mi ESE 18.4 mph - N/A Rain Light Rain
10:30 PM 37.4 °F 27.5 °F 37.4 °F 100% 29.65 in 4.3 mi East 18.4 mph - N/A Rain Light Rain
11:00 PM 37.4 °F 28.5 °F 35.6 °F 93% 29.68 in 4.3 mi ESE 15.0 mph - N/A Rain Light Rain
11:30 PM 37.4 °F 27.8 °F 35.6 °F 93% 29.68 in 5.0 mi ESE 17.3 mph - N/A Rain Light Rain